This is the latest recevied weather packets stored in our database for station/object YO8PIC-13. If no packets are shown the sender has not sent any weather packets the latest 10 day(s).
| Time | Temp. | Humidity | Pressure | Rain* | Wind** | Luminosity | Snow |
|---|---|---|---|---|---|---|---|
| 1787851333 | 19.44° C | 82% | 1025 hPa | - | - | - | - |
| 1787850733 | 19.44° C | 80% | 1025.1 hPa | - | - | - | - |
| 1787850133 | 19.44° C | 79% | 1024.9 hPa | - | - | - | - |
| 1787849534 | 19.44° C | 79% | 1024.9 hPa | - | - | - | - |
| 1787848934 | 20° C | 78% | 1025 hPa | - | - | - | - |
| 1787848333 | 20° C | 79% | 1025 hPa | - | - | - | - |
| 1787847733 | 20° C | 79% | 1024.9 hPa | - | - | - | - |
| 1787847136 | 19.44° C | 78% | 1024.8 hPa | - | - | - | - |
| 1787846534 | 19.44° C | 79% | 1024.8 hPa | - | - | - | - |
| 1787845933 | 19.44° C | 78% | 1024.8 hPa | - | - | - | - |
| 1787845333 | 19.44° C | 77% | 1024.7 hPa | - | - | - | - |
| 1787844734 | 20° C | 73% | 1024.8 hPa | - | - | - | - |
| 1787844133 | 20.56° C | 71% | 1024.8 hPa | - | - | - | - |
| 1787843533 | 21.67° C | 70% | 1024.6 hPa | - | - | - | - |
| 1787842935 | 21.67° C | 67% | 1024.6 hPa | - | - | - | - |
| 1787842333 | 21.11° C | 71% | 1024.8 hPa | - | - | - | - |
| 1787841733 | 21.11° C | 70% | 1024.7 hPa | - | - | - | - |
| 1787841133 | 21.11° C | 72% | 1024.8 hPa | - | - | - | - |
| 1787840534 | 21.11° C | 70% | 1024.7 hPa | - | - | - | - |
| 1787839933 | 21.11° C | 70% | 1024.7 hPa | - | - | - | - |
| 1787839336 | 21.67° C | 68% | 1024.5 hPa | - | - | - | - |
| 1787838734 | 21.67° C | 68% | 1024.4 hPa | - | - | - | - |
| 1787838133 | 23.33° C | 61% | 1024.5 hPa | - | - | - | - |
| 1787837533 | 22.78° C | 64% | 1024.5 hPa | - | - | - | - |
| 1787836933 | 21.67° C | 66% | 1024.5 hPa | - | - | - | - |
* Rain since midnight (hover to see other rain measurements)
** Current wind speed in m/s (hover to see current wind gust speed)